www.pogodaiklimat.ru

Погода и климат >> Архив погоды >> Россия >> Красноярский край >> Сопочная Карга


ПОГОДА в Сопочной Карге

  • Прогноз погоды в Сопочной Карге
  • Монитор погоды в Сопочной Карге

АРХИВ ПОГОДЫ в Сопочной Карге

Время (UTC), дата Ветер
(напр.,м/с)
 
Видим.   Явления Облачность Т
(С)
Тd
(С)
f
(%)
Тe
(С)
Тes
(С)
Комфортность P
(гПа)
Po
(гПа)
Тmin
(С)
Tmax
(С)
R
(мм)
R24
(мм)
S
(см)
12 11.06 З 5 20 км {снег} 8/3
[Sc Ac trans]
0.0 -1.2 92 -6 -5 1004.6 1003.9 +0.4 0.3
15 11.06 ЮЗ 4 2000 м снег 10/8 100 м
[Frnb Ac As]
-0.5 -1.1 96 -6 -6 1004.5 1003.8
18 11.06 ЮЗ 7 20 км {снег} 10/10 200 м
[Sc]
-0.4 -1.0 96 -8 -8 1004.3 1003.6
21 11.06 Ю 5
{10}
20 км {снег} 10/6 200 м
[Sc Ac As]
-1.3 -2.1 94 -8 -8 1003.7 1003.0
00 12.06 Ю 5 4000 м слаб. снег 10/4 200 м
[Sc Ac As]
-0.5 -1.1 96 -7 -7 1003.5 1002.8 -1.6 0.4 30
03 12.06 Ю 7-10
{11}
4000 м слаб. снег 10/6 200 м
[Sc Ac As]
+0.5 -0.6 92 -7 -6 1003.0 1002.3
06 12.06 Ю 5 20 км {снег} 8/5 200 м
[Sc Ac trans]
+1.0 -1.3 85 -5 -3 1002.8 1002.1
09 12.06 Ю 4 20 км 8/4 300 м
[Sc Ac trans]
+1.4 -0.8 85 -4 -2 1003.1 1002.4
12 12.06 Ю 4 4000 м слаб. снег 10/10 300 м
[Sc]
+0.6 0.0 96 -5 -5 1002.9 1002.2 +1.5 0.3
15 12.06 Ю 2 20 км 9/4 300 м
[Sc Ac As]
+0.6 -0.2 94 -3 -3 1002.4 1001.7
18 12.06 В 3 20 км 10/3 300 м
[Sc Ac und]
+0.3 -0.5 94 -4 -4 1002.1 1001.4
21 12.06 В 5 20 км 10/0
[Ac trans Ci fib]
-0.4 -1.3 94 -7 -7 1001.3 1000.6
00 13.06 В 6 20 км 10/0
[Ac trans Ci fib]
+0.3 -1.4 88 -6 -6 999.7 999.0 -0.7 28
03 13.06 В 6 20 км 10/0
[Ac und]
+1.4 -0.3 88 -5 -4 998.4 997.7
06 13.06 В 6
{10}
20 км 10/0
[Ac und]
+1.8 +0.5 91 -4 -3 996.8 996.1
09 13.06 В 8
{10}
4000 м слаб. дождь 10/8 300 м
[Sc Ac As]
+2.0 +1.2 94 -5 -5 995.2 994.5
12 13.06 СВ 9-10
{12}
4000 м слаб. дождь 10/8 300 м
[Sc]
+2.2 +1.4 94 -5 -5 993.7 993.0 +2.4 0.3
15 13.06 СВ 10-12
{13}
20 км 10/6 300 м
[Sc Ac und]
+2.4 +0.8 89 -5 -5 992.0 991.3
18 13.06 СВ 9-11
{12}
20 км 10/0
[Ac und]
+2.1 +0.5 89 -5 -5 990.0 989.3
21 13.06 СВ 11-14
{14}
20 км 10/8 300 м
[Sc Ac und]
+2.2 +0.6 89 -6 -6 988.7 988.0
00 14.06 СВ 12-14
{15}
20 км 10/6 300 м
[Sc Ac und]
+2.2 +0.3 87 -6 -6 987.7 987.0 +2.0 24
03 14.06 СВ 9-13
{15}
20 км 10/0
[Ac und]
+2.1 +0.2 87 -5 -5 986.1 985.4
06 14.06 СВ 13-16
{16}
20 км 10/0
[Ac und]
+1.5 -0.1 89 -7 -7 984.7 984.0
09 14.06 СВ 12-15
{16}
4000 м 10/8 100 м
[Frnb As op]
+1.1 +0.6 96 -8 -8 984.7 984.0
12 14.06 СВ 9-12
{16}
4000 м дождь 10/9 100 м
[Frnb As op]
+1.0 +0.5 96 -7 -7 985.4 984.7 +2.3 90
15 14.06 ЮВ 5
{12}
4000 м дымка {дождь} 10/10 200 м
[Sc]
+0.9 +0.4 96 -5 -5 986.5 985.8
18 14.06 ЮВ 5 20 км {дождь} 10/3 200 м
[Sc Ac und]
+1.0 -0.1 92 -5 -5 986.5 985.8
21 14.06 ЮВ 5 20 км 10/0
[Ac und]
+0.8 -0.3 92 -5 -5 986.2 985.5
00 15.06 В 3 20 км 10/4 300 м
[Sc Ac und]
+0.6 -0.2 94 -4 -4 986.2 985.5 +0.6 0.3 20
03 15.06 ЮВ 4 20 км 10/0
[Ac trans Ci fib]
+2.1 -0.1 85 -3 -1 985.6 984.9
06 15.06 С 1 20 км 10/0
[Ac trans Ci fib]
+2.6 +0.2 84 +1 +7 986.9 986.2
09 15.06 З 4 20 км 9/0
[Ac trans Ci fib]
+1.5 +0.1 90 -4 -0 989.2 988.5
12 15.06 З 8
{10}
20 км 10/8 300 м
[Sc Ac und]
+0.3 -0.8 92 -7 -7 993.2 992.5 +3.8
15 15.06 З 7 4000 м слаб. снег 10/0
[Ac As]
0.0 -0.3 98 -7 -7 996.7 996.0
18 15.06 ЮЗ 5 20 км {снег} 10/0
[Ac As]
0.0 -0.3 98 -6 -6 999.6 998.9
21 15.06 Ю 5 20 км 10/0
[Ac und]
+0.2 -0.6 94 -6 -6 1001.1 1000.4
00 16.06 Ю 7 20 км 10/0
[Ac und]
+0.9 +0.1 94 -6 -6 1001.7 1001.0 0.0 0.0 17
03 16.06 Ю 9-11
{12}
20 км {дождь} 10/0
[Ac und]
+1.8 +0.7 92 -6 -5 1002.1 1001.4
06 16.06 Ю 9-11
{13}
20 км {дождь} 10/0
[Ac trans]
+2.7 +1.4 91 -4 -4 1002.8 1002.1
09 16.06 Ю 6
{12}
20 км 10/6 300 м
[Sc Ac und]
+2.7 +1.7 93 -3 -3 1003.3 1002.6
12 16.06 Ю 7-11
{11}
20 км {дождь} 10/0
[Ac As]
+3.0 +2.0 93 -3 -3 1003.8 1003.1 +3.2 0.3
15 16.06 ЮВ 6
{11}
20 км 9/0
[Ac As]
+2.8 +1.5 91 -3 -3 1003.6 1002.9
18 16.06 ЮВ 6 20 км 9/0
[Ac trans]
+1.9 +0.8 92 -4 -4 1003.6 1002.9
21 16.06 ЮВ 5 20 км 8/0
[Ac trans]
+1.8 +0.7 92 -4 -4 1002.9 1002.2
00 17.06 В 3 20 км 6/0
[Ac trans Ci fib]
+2.1 +0.8 91 -2 -1 1002.9 1002.2 +1.5 11
03 17.06 ЮВ 4 20 км 1/0
[Ci fib]
+3.4 +1.1 85 -1 +3 1002.5 1001.8
06 17.06 ЮВ 5 20 км 1/0
[Ci fib]
+6.0 +2.9 80 +2 +7 1001.9 1001.2
09 17.06 ЮВ 4 20 км 4/0
[Ac trans Ci fib]
+3.4 +1.1 85 -1 +3 1001.3 1000.6
12 17.06 В 4 20 км 4/0
[Ac trans Ci fib]
+3.3 +1.2 86 -1 +1 1000.9 1000.2 +6.0
15 17.06 В 5 20 км 8/0
[Ac trans]
+2.4 +0.9 90 -3 -3 1000.2 999.5
18 17.06 Ю 5 20 км 10/0
[Ac trans]
+2.2 +0.9 91 -3 -3 999.9 999.2
21 17.06 В 4 20 км 9/0
[Ac trans]
+1.6 +0.5 92 -4 -3 998.8 998.1
00 18.06 В 4 20 км 8/0
[Ac trans]
+2.2 +0.9 91 -3 -2 998.9 998.2 +1.6 6
03 18.06 В 3 20 км 8/0
[Ac trans]
+2.8 +1.2 89 -1 +2 998.9 998.2
06 18.06 С 1 20 км 6/0
[Ac trans Ci fib]
+6.5 +3.2 79 +6 +13 998.4 997.7

 

Местоположение метеостанции Сопочная Карга (Красноярский край, Россия): широта 71.87 долгота 82.70 высота над уровнем моря 5 м.

В архиве по умолчанию представлена погода в Сопочной Карге за последнюю неделю. Архивные данные за месяц целиком и за предыдущие месяцы, начиная с января 2011 года, Вы можете получить, выбрав интересующий диапазон дат из раскрывающегося списка и нажав кнопку "Ввод!".


*Определитесь, кто Вы:
робот инопланетянин человек

Внимание! Время в таблицах - всемирное. Для получения местного времени необходимо прибавить поправку, которая равна 7 ч.

Смотрите также архив погоды в соседних городах и на ближайших метеорологических станциях:

Погода в Гыде (Ямало-Ненецкий АО, Россия) (186 км)
Погода на Острове Диксон (Красноярский край, Россия) (199 км)
Погода в Карауле (Красноярский край, Россия) (200 км)
Погода в Крестах Таймырских (Красноярский край, Россия) (279 км)
Погода в Норильске (Красноярский край, Россия) (350 км)
Погода в Антипаюте (Ямало-Ненецкий АО, Россия) (379 км)
Погода в Потапово (Красноярский край, Россия) (380 км)
Погода в Тамбее (Ямало-Ненецкий АО, Россия) (382 км)
Погода в Сеяхе (Ямало-Ненецкий АО, Россия) (413 км)
Погода в Волочанке (Красноярский край, Россия) (429 км)

Пояснения к столбцам:

Ветер - указаны скорость ветра в м/с - средняя за 10 мин, порывы в срок и между сроками (в фигурных скобках) и направление, откуда дует ветер: С - северный, СВ - северо-восточный, В - восточный, ЮВ - юго-восточный, Ю - южный, ЮЗ - юго-западный, З - западный, СЗ - северо-западный.
Видимость - горизонтальная дальность видимости в метрах или километрах. При видимости от 1 до 10 км при отсутствии осадков обычно наблюдается дымка, при ухудшении видимости до 1 км и менее - туман. В сухую погоду видимость может ухудшаться дымом, пылью или мглою.
Явления - указаны атмосферные явления, наблюдавшиеся в срок или в последний час перед сроком; фигурными скобками обозначены явления, наблюдавшиеся между сроками (за 1-3 часа до срока); квадратными скобками обозначены град или гололедные отложения с указанием их диаметра в мм.
Облачность - указаны через наклонную черту общая и нижняя облачность в баллах и высота нижней границы облаков в метрах; квадратными скобками обозначены формы облаков: Ci - перистые, Cs - перисто-слоистые, Cc - перисто-кучевые, Ac - высококучевые, As - высокослоистые, Sc - слоисто-кучевые, Ns - слоисто-дождевые, Cu - кучевые, Cb - кучево-дождевые. Подробнее классификацию облаков см. в Атласе облаков (PDF).
T - Температура воздуха - температура, измеренная на высоте 2 м над землей.
Td - Температура точки росы - температура, при понижении до которой содержащийся в воздухе водяной пар достигнет насыщения.
f - Относительная влажность воздуха - влажноcть воздуха, измеренная на высоте 2 м над землей.
Te - Эффективная температура - температура, которую ощущает одетый по сезону человек в тени. Характеристика душности погоды. При расчете учитывается влияние влажности воздуха и скорости ветра на теплоощущения человека.
Tes - Эффективная температура на солнце - температура, которую ощущает человек, с поправкой на солнечный нагрев. Характеристика знойности погоды. Зависит от высоты солнца над горизонтом, облачности и скорости ветра. Ночью, в пасмурную погоду, а также при ветре 12 м/с и более поправка равна нулю.
P - Атмосферное давление - приведенное к уровню моря атмосферное давление.
Po - Атмосферное давление - измеренное на уровне метеостанции атмосферное давление.
Tmin - Минимальная температура - минимум температуры воздуха на высоте 2 м над землей.
Tmax - Максимальная температура - максимум температуры воздуха на высоте 2 м над землей.
R - Количество осадков - Количество выпавших осадков за период времени, мм. При наведении курсора мыши на число - период времени, за который выпало указанное количество осадков.
R24 - Количество осадков - Количество выпавших осадков за 24 часа, мм.
S - Снежный покров - Высота снежного покрова, см. При наведении курсора мыши на число - состояние снежного покрова и степень покрытия местности в баллах.